Paso Robles, CA

12:20 AM PDT on July 23, 2017 (GMT -0700)
Paso Robles Municipal

Weather History for KPRB - November, 2012

Change the Weather History Date:

Thursday, November 1, 2012

  Actual Average Record
Temperature  
Mean Temperature 57 °F 57 °F  
Max Temperature 69 °F 73 °F 98 °F (1966)
Min Temperature 45 °F 41 °F 27 °F (1971)
Degree Days  
Heating Degree Days 8 8  
Month to date heating degree days 8 8  
Since 1 July heating degree days 115 178  
Cooling Degree Days 0 0  
Month to date cooling degree days 0 0  
Year to date cooling degree days 1144 926  
Growing Degree Days 7 (Base 50)    
Moisture  
Dew Point 49 °F    
Average Humidity 71    
Maximum Humidity 93    
Minimum Humidity 49    
Precipitation  
Precipitation T in 0.03 in 0.27 in (1983)
Month to date precipitation T 0.03  
Year to date precipitation 6.01 9.77  
Since 1 July precipitation 0.14  
Sea Level Pressure  
Sea Level Pressure 30.01 in    
Wind  
Wind Speed 4 mph (NNW)    
Max Wind Speed 10 mph    
Max Gust Speed -    
Visibility 9 miles    
Events      
T = Trace of Precipitation, MM = Missing Value Source: NWS Daily Summary

Daily Weather History Graph

Daily Weather History Graph

Search for Another Location

Airport or City:

Trip Planner

Search our weather history database for the weather conditions in past years. The results will help you decide how hot, cold, wet, or windy it might be!

Date:

Astronomy

Nov. 01, 2012 Rise Set
Actual Time 7:25 AM PDT 6:06 PM PDT
Civil Twilight 6:58 AM PDT 6:33 PM PDT
Nautical Twilight 6:28 AM PDT 7:03 PM PDT
Astronomical Twilight 5:58 AM PDT 7:32 PM PDT
Moon 8:12 PM PDT (11/1) 9:57 AM PDT (11/1)
Length of Visible Light 11h 34m
Length of Day
10h 41m
Waning Gibbous, 92% of the Moon is Illuminated
Nov 1
Waning Gibbous
Nov 6
Last Quarter
Nov 13
New
Nov 20
First Quarter
Nov 28
Full

Hourly Weather History & Observations

Time (PDT) Temp. Dew Point Humidity Pressure Visibility Wind Dir Wind Speed Gust Speed Precip Events Conditions
12:53 AM 53.1 °F 48.9 °F 86% 30.01 in 10.0 mi Calm Calm - N/A   Clear
2:53 AM 48.9 °F 46.9 °F 93% 30.00 in 10.0 mi SW 3.5 mph - N/A   Clear
4:42 AM 46.4 °F 44.6 °F 93% 30.01 in 10.0 mi Calm Calm - N/A   Partly Cloudy
5:53 AM 48.0 °F 45.0 °F 89% 30.01 in 10.0 mi SE 3.5 mph - N/A   Overcast
6:53 AM 50.0 °F 46.0 °F 86% 30.02 in 10.0 mi Calm Calm - N/A   Overcast
7:35 AM 48.2 °F 44.6 °F 87% 30.03 in 10.0 mi ENE 3.5 mph - N/A   Overcast
7:53 AM 50.0 °F 46.9 °F 89% 30.04 in 10.0 mi Calm Calm - N/A   Overcast
8:23 AM 50.0 °F 48.2 °F 94% 30.04 in 1.8 mi East 3.5 mph - N/A   Overcast
8:32 AM 48.2 °F 48.2 °F 100% 30.04 in 0.8 mi Calm Calm - N/A   Overcast
8:41 AM 50.0 °F 48.2 °F 94% 30.05 in 1.2 mi Calm Calm - N/A   Overcast
8:53 AM 50.0 °F 48.9 °F 96% 30.04 in 2.0 mi Calm Calm - N/A   Overcast
9:12 AM 51.8 °F 48.2 °F 88% 30.04 in 4.0 mi ESE 5.8 mph - N/A   Overcast
9:53 AM 53.1 °F 48.9 °F 86% 30.04 in 10.0 mi Calm Calm - N/A   Mostly Cloudy
10:04 AM 53.6 °F 50.0 °F 88% 30.04 in 10.0 mi Calm Calm - N/A   Scattered Clouds
10:53 AM 55.0 °F 50.0 °F 83% 30.05 in 10.0 mi West 3.5 mph - N/A   Clear
11:53 AM 57.0 °F 50.0 °F 77% 30.04 in 10.0 mi North 3.5 mph - N/A   Mostly Cloudy
12:53 PM 60.1 °F 50.0 °F 69% 30.00 in 10.0 mi Calm Calm - N/A   Scattered Clouds
1:53 PM 61.0 °F 50.0 °F 67% 30.00 in 10.0 mi WNW 4.6 mph - N/A   Overcast
2:53 PM 64.0 °F 51.1 °F 63% 29.98 in 10.0 mi North 9.2 mph - 0.00 in   Mostly Cloudy
3:53 PM 66.9 °F 48.9 °F 52% 29.97 in 10.0 mi Variable 3.5 mph - N/A   Clear
4:53 PM 68.0 °F 48.0 °F 49% 29.97 in 10.0 mi NW 5.8 mph - N/A   Clear
5:53 PM 64.9 °F 51.1 °F 61% 29.97 in 10.0 mi NW 8.1 mph - N/A   Mostly Cloudy
6:53 PM 63.0 °F 53.1 °F 70% 29.98 in 10.0 mi NW 5.8 mph - N/A   Scattered Clouds
7:53 PM 60.1 °F 52.0 °F 75% 29.99 in 10.0 mi WNW 8.1 mph - N/A   Clear
8:53 PM 57.9 °F 53.1 °F 84% 29.99 in 10.0 mi WNW 4.6 mph - N/A   Clear
9:53 PM 57.0 °F 53.1 °F 87% 30.02 in 10.0 mi NW 10.4 mph - N/A   Scattered Clouds
10:53 PM 55.9 °F 53.1 °F 90% 30.01 in 10.0 mi NNW 4.6 mph - N/A   Clear
11:53 PM 51.1 °F 48.9 °F 92% 30.02 in 10.0 mi ENE 4.6 mph - N/A   Clear